#datetime,building,power
2023-11-25T00:00:00,pth,2.40
2023-11-25T00:02:00,pth,2.40
2023-11-25T00:03:00,pth,1.20
2023-11-25T00:05:00,pth,2.40
2023-11-25T00:07:00,pth,2.40
2023-11-25T00:09:00,pth,1.20
2023-11-25T00:11:00,pth,2.40
2023-11-25T00:12:00,pth,1.20
2023-11-25T00:14:00,pth,1.19
2023-11-25T00:15:00,pth,1.20
2023-11-25T00:17:00,pth,3.60
2023-11-25T00:19:00,pth,2.40
2023-11-25T00:21:00,pth,3.60
2023-11-25T00:22:00,pth,1.20
2023-11-25T00:24:00,pth,3.60
2023-11-25T00:26:00,pth,3.60
2023-11-25T00:28:00,pth,3.60
2023-11-25T00:29:00,pth,1.20
2023-11-25T00:31:00,pth,3.60
2023-11-25T00:33:00,pth,2.40
2023-11-25T00:35:00,pth,2.40
2023-11-25T00:37:00,pth,2.40
2023-11-25T00:38:00,pth,1.20
2023-11-25T00:39:00,pth,1.19
2023-11-25T00:40:00,pth,1.20
2023-11-25T00:42:00,pth,2.40
2023-11-25T00:43:00,pth,2.40
2023-11-25T00:45:00,pth,2.40
2023-11-25T00:47:00,pth,2.40
2023-11-25T00:49:00,pth,2.40
2023-11-25T00:51:00,pth,3.60
2023-11-25T00:52:00,pth,1.20
2023-11-25T00:53:00,pth,2.40
2023-11-25T00:55:00,pth,3.60
2023-11-25T00:57:00,pth,2.40
2023-11-25T00:59:00,pth,2.40
2023-11-25T01:00:00,pth,1.19
2023-11-25T01:02:00,pth,2.40
2023-11-25T01:04:00,pth,2.40
2023-11-25T01:05:00,pth,1.20
2023-11-25T01:07:00,pth,2.40
2023-11-25T01:08:00,pth,1.20
2023-11-25T01:10:00,pth,2.40
2023-11-25T01:11:00,pth,1.20
2023-11-25T01:13:00,pth,2.40
2023-11-25T01:15:00,pth,2.40
2023-11-25T01:17:00,pth,2.40
2023-11-25T01:19:00,pth,2.40
2023-11-25T01:20:00,pth,1.20
2023-11-25T01:22:00,pth,3.60
2023-11-25T01:24:00,pth,2.40
2023-11-25T01:26:00,pth,2.40
2023-11-25T01:27:00,pth,1.20
2023-11-25T01:29:00,pth,2.40
2023-11-25T01:31:00,pth,2.40
2023-11-25T01:32:00,pth,1.20
2023-11-25T01:34:00,pth,1.20
2023-11-25T01:36:00,pth,2.40
2023-11-25T01:38:00,pth,2.40
2023-11-25T01:39:00,pth,1.20
2023-11-25T01:40:00,pth,1.20
2023-11-25T01:42:00,pth,2.40
2023-11-25T01:43:00,pth,1.20
2023-11-25T01:45:00,pth,1.19
2023-11-25T01:47:00,pth,2.40
2023-11-25T01:49:00,pth,2.40
2023-11-25T01:50:00,pth,1.20
2023-11-25T01:52:00,pth,3.60
2023-11-25T01:54:00,pth,14.40
2023-11-25T01:56:00,pth,14.40
2023-11-25T01:58:00,pth,13.20
2023-11-25T02:00:00,pth,14.41
2023-11-25T02:02:00,pth,13.20
2023-11-25T02:03:00,pth,7.20
2023-11-25T02:05:00,pth,13.20
2023-11-25T02:07:00,pth,13.20
2023-11-25T02:09:00,pth,13.21
2023-11-25T02:10:00,pth,7.20
2023-11-25T02:12:00,pth,13.20
2023-11-25T02:13:00,pth,6.00
2023-11-25T02:15:00,pth,13.20
2023-11-25T02:17:00,pth,13.21
2023-11-25T02:19:00,pth,13.20
2023-11-25T02:21:00,pth,13.20
2023-11-25T02:23:00,pth,13.20
2023-11-25T02:24:00,pth,6.00
2023-11-25T02:26:00,pth,13.21
2023-11-25T02:27:00,pth,7.20
2023-11-25T02:29:00,pth,12.00
2023-11-25T02:31:00,pth,13.20
2023-11-25T02:32:00,pth,7.20
2023-11-25T02:34:00,pth,12.00
2023-11-25T02:36:00,pth,13.20
2023-11-25T02:38:00,pth,13.20
2023-11-25T02:40:00,pth,13.21
2023-11-25T02:42:00,pth,13.20
2023-11-25T02:43:00,pth,2.40
2023-11-25T02:45:00,pth,12.00
2023-11-25T02:46:00,pth,6.00
2023-11-25T02:48:00,pth,13.20
2023-11-25T02:49:00,pth,6.00
2023-11-25T02:50:00,pth,7.21
2023-11-25T02:52:00,pth,6.00
2023-11-25T02:54:00,pth,1.20
2023-11-25T02:56:00,pth,2.40
2023-11-25T02:58:00,pth,1.20
2023-11-25T02:59:00,pth,1.20
2023-11-25T03:01:00,pth,2.40
2023-11-25T03:03:00,pth,1.19
2023-11-25T03:05:00,pth,2.40
2023-11-25T03:07:00,pth,2.40
2023-11-25T03:08:00,pth,1.20
2023-11-25T03:09:00,pth,1.19
2023-11-25T03:11:00,pth,1.20
2023-11-25T03:13:00,pth,2.40
2023-11-25T03:15:00,pth,2.40
2023-11-25T03:16:00,pth,1.20
2023-11-25T03:18:00,pth,2.40
2023-11-25T03:21:00,pth,2.40
2023-11-25T03:23:00,pth,2.40
2023-11-25T03:25:00,pth,1.19
2023-11-25T03:27:00,pth,2.40
2023-11-25T03:28:00,pth,1.20
2023-11-25T03:30:00,pth,2.40
2023-11-25T03:32:00,pth,2.40
2023-11-25T03:33:00,pth,1.20
2023-11-25T03:35:00,pth,2.40
2023-11-25T03:37:00,pth,2.40
2023-11-25T03:38:00,pth,1.20
2023-11-25T03:40:00,pth,2.40
2023-11-25T03:42:00,pth,1.20
2023-11-25T03:44:00,pth,3.60
2023-11-25T03:46:00,pth,2.40
2023-11-25T03:47:00,pth,1.20
2023-11-25T03:49:00,pth,2.40
2023-11-25T03:51:00,pth,2.40
2023-11-25T03:53:00,pth,2.40
2023-11-25T03:54:00,pth,1.20
2023-11-25T03:56:00,pth,1.20
2023-11-25T03:58:00,pth,2.40
2023-11-25T04:00:00,pth,2.40
2023-11-25T04:01:00,pth,1.20
2023-11-25T04:03:00,pth,2.40
2023-11-25T04:05:00,pth,2.40
2023-11-25T04:06:00,pth,1.20
2023-11-25T04:08:00,pth,1.20
2023-11-25T04:09:00,pth,1.20
2023-11-25T04:10:00,pth,1.20
2023-11-25T04:12:00,pth,2.40
2023-11-25T04:14:00,pth,2.40
2023-11-25T04:15:00,pth,1.20
2023-11-25T04:17:00,pth,2.40
2023-11-25T04:19:00,pth,2.40
2023-11-25T04:20:00,pth,1.20
2023-11-25T04:22:00,pth,2.40
2023-11-25T04:24:00,pth,1.19
2023-11-25T04:26:00,pth,2.40
2023-11-25T04:28:00,pth,1.20
2023-11-25T04:29:00,pth,1.20
2023-11-25T04:31:00,pth,1.20
2023-11-25T04:32:00,pth,1.19
2023-11-25T04:34:00,pth,2.40
2023-11-25T04:36:00,pth,1.20
2023-11-25T04:38:00,pth,2.40
2023-11-25T04:40:00,pth,1.20
2023-11-25T04:41:00,pth,1.19
2023-11-25T04:43:00,pth,2.40
2023-11-25T04:44:00,pth,1.20
2023-11-25T04:45:00,pth,1.20
2023-11-25T04:47:00,pth,1.20
2023-11-25T04:49:00,pth,2.40
2023-11-25T04:51:00,pth,2.40
2023-11-25T04:52:00,pth,1.20
2023-11-25T04:54:00,pth,1.20
2023-11-25T04:55:00,pth,1.19
2023-11-25T04:57:00,pth,2.40
2023-11-25T04:58:00,pth,1.20
2023-11-25T05:00:00,pth,2.40
2023-11-25T05:02:00,pth,2.40
2023-11-25T05:04:00,pth,2.40
2023-11-25T05:05:00,pth,1.20
2023-11-25T05:07:00,pth,2.40
2023-11-25T05:09:00,pth,2.40
2023-11-25T05:10:00,pth,1.20
2023-11-25T05:12:00,pth,2.40
2023-11-25T05:14:00,pth,2.40
2023-11-25T05:16:00,pth,2.40
2023-11-25T05:19:00,pth,2.40
2023-11-25T05:20:00,pth,1.20
2023-11-25T05:22:00,pth,2.40
2023-11-25T05:24:00,pth,2.40
2023-11-25T05:26:00,pth,1.20
2023-11-25T05:28:00,pth,2.40
2023-11-25T05:30:00,pth,2.40
2023-11-25T05:31:00,pth,1.20
2023-11-25T05:33:00,pth,2.40
2023-11-25T05:36:00,pth,2.40
2023-11-25T05:37:00,pth,1.20
2023-11-25T05:39:00,pth,2.40
2023-11-25T05:41:00,pth,3.60
2023-11-25T05:42:00,pth,1.20
2023-11-25T05:44:00,pth,2.40
2023-11-25T05:46:00,pth,2.40
2023-11-25T05:48:00,pth,1.19
2023-11-25T05:50:00,pth,2.40
2023-11-25T05:52:00,pth,2.40
2023-11-25T05:54:00,pth,2.40
2023-11-25T05:56:00,pth,1.20
2023-11-25T05:57:00,pth,1.20
2023-11-25T05:58:00,pth,1.20
2023-11-25T06:00:00,pth,2.40
2023-11-25T06:02:00,pth,2.40
2023-11-25T06:04:00,pth,2.40
2023-11-25T06:05:00,pth,1.20
2023-11-25T06:07:00,pth,2.40
2023-11-25T06:09:00,pth,2.40
2023-11-25T06:11:00,pth,2.40
2023-11-25T06:12:00,pth,1.20
2023-11-25T06:13:00,pth,1.20
2023-11-25T06:15:00,pth,2.40
2023-11-25T06:17:00,pth,2.40
2023-11-25T06:19:00,pth,1.20
2023-11-25T06:21:00,pth,2.40
2023-11-25T06:22:00,pth,1.20
2023-11-25T06:24:00,pth,2.40
2023-11-25T06:27:00,pth,2.40
2023-11-25T06:29:00,pth,2.40
2023-11-25T06:31:00,pth,2.40
2023-11-25T06:34:00,pth,2.40
2023-11-25T06:36:00,pth,2.40
2023-11-25T06:38:00,pth,1.20
2023-11-25T06:40:00,pth,2.40
2023-11-25T06:41:00,pth,1.20
2023-11-25T06:42:00,pth,1.20
2023-11-25T06:44:00,pth,2.40
2023-11-25T06:46:00,pth,2.40
2023-11-25T06:48:00,pth,1.20
2023-11-25T06:50:00,pth,2.40
2023-11-25T06:52:00,pth,1.20
2023-11-25T06:54:00,pth,2.40
2023-11-25T06:56:00,pth,1.20
2023-11-25T06:58:00,pth,2.40
2023-11-25T07:00:00,pth,2.40
2023-11-25T07:02:00,pth,1.20
2023-11-25T07:04:00,pth,2.40
2023-11-25T07:06:00,pth,1.20
2023-11-25T07:08:00,pth,2.40
2023-11-25T07:09:00,pth,1.20
2023-11-25T07:11:00,pth,2.40
2023-11-25T07:13:00,pth,1.20
2023-11-25T07:14:00,pth,1.19
2023-11-25T07:16:00,pth,2.40
2023-11-25T07:18:00,pth,1.20
2023-11-25T07:20:00,pth,2.40
2023-11-25T07:22:00,pth,2.40
2023-11-25T07:24:00,pth,1.20
2023-11-25T07:26:00,pth,2.40
2023-11-25T07:28:00,pth,1.20
2023-11-25T07:30:00,pth,1.20
2023-11-25T07:32:00,pth,1.19
2023-11-25T07:33:00,pth,1.20
2023-11-25T07:35:00,pth,1.20
2023-11-25T07:36:00,pth,1.20
2023-11-25T07:38:00,pth,2.40
2023-11-25T07:39:00,pth,1.19
2023-11-25T07:42:00,pth,2.40
2023-11-25T07:44:00,pth,1.20
2023-11-25T07:46:00,pth,2.40
2023-11-25T07:47:00,pth,1.19
2023-11-25T07:49:00,pth,1.20
2023-11-25T07:50:00,pth,1.20
2023-11-25T07:52:00,pth,1.20
2023-11-25T07:54:00,pth,1.20
2023-11-25T07:56:00,pth,4.80
2023-11-25T07:58:00,pth,4.80
2023-11-25T07:59:00,pth,2.40
2023-11-25T08:01:00,pth,1.20
2023-11-25T08:03:00,pth,1.20
2023-11-25T08:05:00,pth,2.40
2023-11-25T08:07:00,pth,1.19
2023-11-25T08:09:00,pth,1.20
2023-11-25T08:11:00,pth,2.40
2023-11-25T08:13:00,pth,1.20
2023-11-25T08:14:00,pth,1.20
2023-11-25T08:16:00,pth,1.19
2023-11-25T08:17:00,pth,1.20
2023-11-25T08:19:00,pth,1.20
2023-11-25T08:21:00,pth,2.40
2023-11-25T08:24:00,pth,2.40
2023-11-25T08:26:00,pth,1.20
2023-11-25T08:28:00,pth,1.20
2023-11-25T08:30:00,pth,2.40
2023-11-25T08:33:00,pth,2.40
2023-11-25T08:36:00,pth,2.40
2023-11-25T08:38:00,pth,2.40
2023-11-25T08:40:00,pth,2.40
2023-11-25T08:42:00,pth,1.19
2023-11-25T08:43:00,pth,1.20
2023-11-25T08:44:00,pth,1.20
2023-11-25T08:46:00,pth,1.20
2023-11-25T08:47:00,pth,1.20
2023-11-25T08:49:00,pth,1.20
2023-11-25T08:51:00,pth,1.19
2023-11-25T08:52:00,pth,1.20
2023-11-25T08:54:00,pth,2.40
2023-11-25T08:55:00,pth,1.20
2023-11-25T08:57:00,pth,6.00
2023-11-25T08:58:00,pth,2.40
2023-11-25T08:59:00,pth,2.40
2023-11-25T09:01:00,pth,3.60
2023-11-25T09:03:00,pth,2.40
2023-11-25T09:04:00,pth,1.19
2023-11-25T09:06:00,pth,6.01
2023-11-25T09:08:00,pth,3.60
2023-11-25T09:10:00,pth,2.40
2023-11-25T09:12:00,pth,2.40
2023-11-25T09:13:00,pth,1.20
2023-11-25T09:15:00,pth,1.20
2023-11-25T09:17:00,pth,1.20
2023-11-25T09:19:00,pth,2.40
2023-11-25T09:20:00,pth,1.20
2023-11-25T09:22:00,pth,2.40
2023-11-25T09:25:00,pth,2.40
2023-11-25T09:27:00,pth,2.40
2023-11-25T09:29:00,pth,1.19
2023-11-25T09:30:00,pth,1.20
2023-11-25T09:32:00,pth,1.20
2023-11-25T09:34:00,pth,1.20
2023-11-25T09:36:00,pth,2.40
2023-11-25T09:38:00,pth,2.40
2023-11-25T09:40:00,pth,1.20
2023-11-25T09:42:00,pth,2.40
2023-11-25T09:44:00,pth,2.40
2023-11-25T09:46:00,pth,2.40
2023-11-25T09:48:00,pth,1.20
2023-11-25T09:50:00,pth,2.40
2023-11-25T09:53:00,pth,2.40
2023-11-25T09:54:00,pth,1.20
2023-11-25T09:56:00,pth,1.20
2023-11-25T09:57:00,pth,1.20
2023-11-25T09:59:00,pth,2.40
2023-11-25T10:02:00,pth,2.40
2023-11-25T10:04:00,pth,1.20
2023-11-25T10:05:00,pth,1.20
2023-11-25T10:07:00,pth,2.40
2023-11-25T10:09:00,pth,2.40
2023-11-25T10:11:00,pth,1.20
2023-11-25T10:12:00,pth,1.20
2023-11-25T10:14:00,pth,2.40
2023-11-25T10:16:00,pth,1.19
2023-11-25T10:17:00,pth,1.20
2023-11-25T10:19:00,pth,1.20
2023-11-25T10:21:00,pth,2.40
2023-11-25T10:23:00,pth,1.20
2023-11-25T10:25:00,pth,1.20
2023-11-25T10:26:00,pth,1.19
2023-11-25T10:28:00,pth,2.40
2023-11-25T10:30:00,pth,1.20
2023-11-25T10:31:00,pth,1.20
2023-11-25T10:33:00,pth,1.20
2023-11-25T10:35:00,pth,1.19
2023-11-25T10:36:00,pth,1.20
2023-11-25T10:37:00,pth,1.20
2023-11-25T10:39:00,pth,1.20
2023-11-25T10:40:00,pth,1.20
2023-11-25T10:41:00,pth,1.20
2023-11-25T10:43:00,pth,1.19
2023-11-25T10:44:00,pth,1.20
2023-11-25T10:46:00,pth,1.20
2023-11-25T10:48:00,pth,2.40
2023-11-25T10:50:00,pth,1.20
2023-11-25T10:52:00,pth,2.40
2023-11-25T10:54:00,pth,1.20
2023-11-25T10:56:00,pth,1.20
2023-11-25T10:57:00,pth,1.20
2023-11-25T10:59:00,pth,2.40
2023-11-25T11:00:00,pth,1.19
2023-11-25T11:01:00,pth,2.40
2023-11-25T11:03:00,pth,3.60
2023-11-25T11:05:00,pth,1.19
2023-11-25T11:06:00,pth,1.20
2023-11-25T11:08:00,pth,2.40
2023-11-25T11:10:00,pth,2.40
2023-11-25T11:11:00,pth,1.19
2023-11-25T11:13:00,pth,2.40
2023-11-25T11:15:00,pth,2.40
2023-11-25T11:16:00,pth,1.20
2023-11-25T11:18:00,pth,3.60
2023-11-25T11:19:00,pth,1.20
2023-11-25T11:21:00,pth,3.60
2023-11-25T11:23:00,pth,3.60
2023-11-25T11:24:00,pth,1.20
2023-11-25T11:26:00,pth,2.40
2023-11-25T11:28:00,pth,2.40
2023-11-25T11:30:00,pth,2.40
2023-11-25T11:32:00,pth,2.40
2023-11-25T11:33:00,pth,1.19
2023-11-25T11:35:00,pth,2.40
2023-11-25T11:37:00,pth,1.20
2023-11-25T11:38:00,pth,1.20
2023-11-25T11:40:00,pth,2.40
2023-11-25T11:42:00,pth,1.20
2023-11-25T11:43:00,pth,1.20
2023-11-25T11:45:00,pth,2.40
2023-11-25T11:47:00,pth,2.40
2023-11-25T11:49:00,pth,2.40
2023-11-25T11:51:00,pth,1.20
2023-11-25T11:53:00,pth,2.40
2023-11-25T11:54:00,pth,1.20
2023-11-25T11:55:00,pth,1.19
2023-11-25T11:57:00,pth,2.40
2023-11-25T12:00:00,pth,2.40
2023-11-25T12:01:00,pth,1.20
2023-11-25T12:03:00,pth,3.60
2023-11-25T12:05:00,pth,2.40
2023-11-25T12:06:00,pth,3.60
2023-11-25T12:08:00,pth,4.80
2023-11-25T12:09:00,pth,2.40
2023-11-25T12:11:00,pth,3.60
2023-11-25T12:13:00,pth,4.80
2023-11-25T12:15:00,pth,1.20
2023-11-25T12:17:00,pth,2.40
2023-11-25T12:19:00,pth,1.20
2023-11-25T12:21:00,pth,1.19
2023-11-25T12:22:00,pth,1.20
2023-11-25T12:24:00,pth,2.40
2023-11-25T12:27:00,pth,2.40
2023-11-25T12:29:00,pth,1.19
2023-11-25T12:31:00,pth,2.40
2023-11-25T12:33:00,pth,1.20
2023-11-25T12:35:00,pth,2.40
2023-11-25T12:36:00,pth,1.20
2023-11-25T12:38:00,pth,1.19
2023-11-25T12:39:00,pth,1.20
2023-11-25T12:41:00,pth,1.20
2023-11-25T12:43:00,pth,1.20
2023-11-25T12:44:00,pth,1.20
2023-11-25T12:46:00,pth,1.20
2023-11-25T12:48:00,pth,1.19
2023-11-25T12:49:00,pth,1.20
2023-11-25T12:51:00,pth,1.20
2023-11-25T12:53:00,pth,2.40
2023-11-25T12:55:00,pth,1.20
2023-11-25T12:57:00,pth,1.19
2023-11-25T12:58:00,pth,1.20
2023-11-25T13:00:00,pth,1.20
2023-11-25T13:01:00,pth,1.20
2023-11-25T13:02:00,pth,1.20
2023-11-25T13:04:00,pth,1.20
2023-11-25T13:06:00,pth,2.40
2023-11-25T13:08:00,pth,1.20
2023-11-25T13:10:00,pth,1.20
2023-11-25T13:12:00,pth,2.40
2023-11-25T13:14:00,pth,1.20
2023-11-25T13:16:00,pth,2.40
2023-11-25T13:18:00,pth,1.20
2023-11-25T13:20:00,pth,1.20
2023-11-25T13:22:00,pth,1.20
2023-11-25T13:24:00,pth,2.40
2023-11-25T13:26:00,pth,1.20
2023-11-25T13:28:00,pth,2.40
2023-11-25T13:30:00,pth,1.20
2023-11-25T13:31:00,pth,1.20
2023-11-25T13:33:00,pth,3.60
2023-11-25T13:35:00,pth,2.40
2023-11-25T13:37:00,pth,2.40
2023-11-25T13:38:00,pth,2.40
2023-11-25T13:40:00,pth,1.20
2023-11-25T13:41:00,pth,1.20
2023-11-25T13:43:00,pth,2.40
2023-11-25T13:45:00,pth,2.40
2023-11-25T13:47:00,pth,2.40
2023-11-25T13:48:00,pth,2.40
2023-11-25T13:50:00,pth,1.19
2023-11-25T13:52:00,pth,2.40
2023-11-25T13:54:00,pth,2.40
2023-11-25T13:55:00,pth,1.20
2023-11-25T13:57:00,pth,2.40
2023-11-25T13:58:00,pth,1.20
2023-11-25T13:59:00,pth,1.20
2023-11-25T14:01:00,pth,1.20
2023-11-25T14:03:00,pth,2.40
2023-11-25T14:05:00,pth,1.20
2023-11-25T14:07:00,pth,2.40
2023-11-25T14:09:00,pth,2.40
2023-11-25T14:12:00,pth,2.40
2023-11-25T14:14:00,pth,1.20
2023-11-25T14:16:00,pth,1.20
2023-11-25T14:17:00,pth,1.20
2023-11-25T14:18:00,pth,1.20
2023-11-25T14:20:00,pth,1.20
2023-11-25T14:22:00,pth,2.40
2023-11-25T14:24:00,pth,1.20
2023-11-25T14:25:00,pth,1.20
2023-11-25T14:28:00,pth,2.40
2023-11-25T14:29:00,pth,1.19
2023-11-25T14:31:00,pth,1.20
2023-11-25T14:33:00,pth,2.40
2023-11-25T14:35:00,pth,1.20
2023-11-25T14:38:00,pth,2.40
2023-11-25T14:40:00,pth,1.20
2023-11-25T14:41:00,pth,1.20
2023-11-25T14:44:00,pth,2.40
2023-11-25T14:46:00,pth,1.20
2023-11-25T14:47:00,pth,1.20
2023-11-25T14:49:00,pth,1.19
2023-11-25T14:51:00,pth,1.20
2023-11-25T14:53:00,pth,2.40
2023-11-25T14:54:00,pth,1.20
2023-11-25T14:56:00,pth,2.40
2023-11-25T14:58:00,pth,3.60
2023-11-25T14:59:00,pth,1.20
2023-11-25T15:01:00,pth,2.40
2023-11-25T15:02:00,pth,1.20
2023-11-25T15:04:00,pth,1.20
2023-11-25T15:06:00,pth,2.40
2023-11-25T15:08:00,pth,2.40
2023-11-25T15:11:00,pth,2.40
2023-11-25T15:12:00,pth,1.20
2023-11-25T15:14:00,pth,1.20
2023-11-25T15:16:00,pth,2.40
2023-11-25T15:19:00,pth,2.40
2023-11-25T15:21:00,pth,1.20
2023-11-25T15:23:00,pth,1.20
2023-11-25T15:25:00,pth,1.20
2023-11-25T15:26:00,pth,1.20
2023-11-25T15:28:00,pth,1.19
2023-11-25T15:30:00,pth,2.40
2023-11-25T15:32:00,pth,2.40
2023-11-25T15:34:00,pth,2.40
2023-11-25T15:36:00,pth,1.20
2023-11-25T15:37:00,pth,1.20
2023-11-25T15:39:00,pth,1.20
2023-11-25T15:41:00,pth,2.40
2023-11-25T15:44:00,pth,2.40
2023-11-25T15:46:00,pth,2.40
2023-11-25T15:48:00,pth,2.40
2023-11-25T15:49:00,pth,1.20
2023-11-25T15:51:00,pth,2.40
2023-11-25T15:53:00,pth,1.20
2023-11-25T15:55:00,pth,2.40
2023-11-25T15:57:00,pth,2.40
2023-11-25T15:59:00,pth,1.20
2023-11-25T16:01:00,pth,1.20
2023-11-25T16:02:00,pth,1.20
2023-11-25T16:03:00,pth,1.20
2023-11-25T16:05:00,pth,1.20
2023-11-25T16:06:00,pth,1.19
2023-11-25T16:08:00,pth,1.20
2023-11-25T16:11:00,pth,1.20
2023-11-25T16:13:00,pth,1.20
2023-11-25T16:15:00,pth,2.40
2023-11-25T16:16:00,pth,1.19
2023-11-25T16:18:00,pth,1.20
2023-11-25T16:19:00,pth,1.20
2023-11-25T16:21:00,pth,1.20
2023-11-25T16:23:00,pth,2.40
2023-11-25T16:25:00,pth,2.40
2023-11-25T16:26:00,pth,1.20
2023-11-25T16:28:00,pth,2.40
2023-11-25T16:30:00,pth,1.20
2023-11-25T16:31:00,pth,1.20
2023-11-25T16:33:00,pth,2.40
2023-11-25T16:34:00,pth,1.20
2023-11-25T16:36:00,pth,2.40
2023-11-25T16:37:00,pth,1.20
2023-11-25T16:39:00,pth,2.40
2023-11-25T16:40:00,pth,1.20
2023-11-25T16:42:00,pth,1.20
2023-11-25T16:44:00,pth,2.40
2023-11-25T16:46:00,pth,2.40
2023-11-25T16:48:00,pth,2.40
2023-11-25T16:50:00,pth,2.40
2023-11-25T16:51:00,pth,1.20
2023-11-25T16:52:00,pth,1.19
2023-11-25T16:54:00,pth,2.40
2023-11-25T16:56:00,pth,2.40
2023-11-25T16:57:00,pth,1.20
2023-11-25T16:58:00,pth,1.19
2023-11-25T16:59:00,pth,1.20
2023-11-25T17:01:00,pth,1.20
2023-11-25T17:03:00,pth,2.40
2023-11-25T17:05:00,pth,2.40
2023-11-25T17:07:00,pth,2.40
2023-11-25T17:09:00,pth,2.40
2023-11-25T17:10:00,pth,1.20
2023-11-25T17:12:00,pth,1.19
2023-11-25T17:14:00,pth,2.40
2023-11-25T17:15:00,pth,1.20
2023-11-25T17:16:00,pth,1.20
2023-11-25T17:18:00,pth,2.40
2023-11-25T17:20:00,pth,2.40
2023-11-25T17:22:00,pth,2.40
2023-11-25T17:23:00,pth,1.20
2023-11-25T17:25:00,pth,2.40
2023-11-25T17:27:00,pth,3.60
2023-11-25T17:29:00,pth,2.40
2023-11-25T17:31:00,pth,2.40
2023-11-25T17:33:00,pth,2.40
2023-11-25T17:34:00,pth,1.20
2023-11-25T17:36:00,pth,2.40
2023-11-25T17:37:00,pth,1.20
2023-11-25T17:38:00,pth,1.20
2023-11-25T17:39:00,pth,1.20
2023-11-25T17:41:00,pth,2.40
2023-11-25T17:43:00,pth,2.40
2023-11-25T17:45:00,pth,2.40
2023-11-25T17:47:00,pth,4.80
2023-11-25T17:49:00,pth,3.60
2023-11-25T17:50:00,pth,1.20
2023-11-25T17:51:00,pth,3.60
2023-11-25T17:53:00,pth,4.80
2023-11-25T17:55:00,pth,2.40
2023-11-25T17:57:00,pth,3.60
2023-11-25T17:58:00,pth,1.20
2023-11-25T18:00:00,pth,1.20
2023-11-25T18:01:00,pth,1.19
2023-11-25T18:03:00,pth,2.40
2023-11-25T18:05:00,pth,3.60
2023-11-25T18:07:00,pth,2.40
2023-11-25T18:08:00,pth,1.20
2023-11-25T18:10:00,pth,3.60
2023-11-25T18:11:00,pth,2.40
2023-11-25T18:13:00,pth,6.00
2023-11-25T18:15:00,pth,8.40
2023-11-25T18:17:00,pth,6.01
2023-11-25T18:19:00,pth,4.80
2023-11-25T18:21:00,pth,6.00
2023-11-25T18:23:00,pth,4.80
2023-11-25T18:24:00,pth,3.60
2023-11-25T18:26:00,pth,4.80
2023-11-25T18:27:00,pth,1.20
2023-11-25T18:29:00,pth,4.80
2023-11-25T18:30:00,pth,1.19
2023-11-25T18:31:00,pth,2.40
2023-11-25T18:33:00,pth,3.60
2023-11-25T18:35:00,pth,4.80
2023-11-25T18:37:00,pth,6.00
2023-11-25T18:39:00,pth,6.00
2023-11-25T18:40:00,pth,2.40
2023-11-25T18:42:00,pth,4.80
2023-11-25T18:43:00,pth,2.40
2023-11-25T18:45:00,pth,4.80
2023-11-25T18:47:00,pth,2.40
2023-11-25T18:48:00,pth,2.40
2023-11-25T18:50:00,pth,2.40
2023-11-25T18:51:00,pth,2.40
2023-11-25T18:53:00,pth,2.40
2023-11-25T18:55:00,pth,3.60
2023-11-25T18:56:00,pth,1.20
2023-11-25T18:58:00,pth,2.40
2023-11-25T18:59:00,pth,1.20
2023-11-25T19:01:00,pth,2.40
2023-11-25T19:03:00,pth,2.40
2023-11-25T19:05:00,pth,2.40
2023-11-25T19:06:00,pth,1.20
2023-11-25T19:08:00,pth,3.60
2023-11-25T19:10:00,pth,3.60
2023-11-25T19:12:00,pth,2.40
2023-11-25T19:13:00,pth,1.20
2023-11-25T19:15:00,pth,3.60
2023-11-25T19:16:00,pth,1.20
2023-11-25T19:17:00,pth,2.40
2023-11-25T19:18:00,pth,1.20
2023-11-25T19:21:00,pth,3.60
2023-11-25T19:22:00,pth,2.40
2023-11-25T19:23:00,pth,1.20
2023-11-25T19:25:00,pth,3.60
2023-11-25T19:27:00,pth,2.40
2023-11-25T19:28:00,pth,1.20
2023-11-25T19:30:00,pth,3.60
2023-11-25T19:31:00,pth,1.19
2023-11-25T19:33:00,pth,2.40
2023-11-25T19:34:00,pth,1.20
2023-11-25T19:36:00,pth,2.40
2023-11-25T19:38:00,pth,2.40
2023-11-25T19:39:00,pth,1.20
2023-11-25T19:41:00,pth,2.40
2023-11-25T19:42:00,pth,1.20
2023-11-25T19:44:00,pth,2.40
2023-11-25T19:46:00,pth,3.60
2023-11-25T19:48:00,pth,3.60
2023-11-25T19:50:00,pth,2.40
2023-11-25T19:52:00,pth,2.40
2023-11-25T19:53:00,pth,1.20
2023-11-25T19:55:00,pth,2.40
2023-11-25T19:56:00,pth,1.20
2023-11-25T19:57:00,pth,1.20
2023-11-25T19:59:00,pth,2.40
2023-11-25T20:01:00,pth,2.40
2023-11-25T20:04:00,pth,2.40
2023-11-25T20:06:00,pth,2.40
2023-11-25T20:08:00,pth,2.40
2023-11-25T20:10:00,pth,1.20
2023-11-25T20:12:00,pth,2.40
2023-11-25T20:13:00,pth,1.20
2023-11-25T20:15:00,pth,2.40
2023-11-25T20:16:00,pth,1.20
2023-11-25T20:18:00,pth,2.40
2023-11-25T20:21:00,pth,2.40
2023-11-25T20:23:00,pth,2.40
2023-11-25T20:24:00,pth,1.20
2023-11-25T20:26:00,pth,2.40
2023-11-25T20:28:00,pth,1.20
2023-11-25T20:29:00,pth,1.20
2023-11-25T20:31:00,pth,2.40
2023-11-25T20:32:00,pth,1.20
2023-11-25T20:33:00,pth,1.20
2023-11-25T20:35:00,pth,2.40
2023-11-25T20:37:00,pth,2.40
2023-11-25T20:39:00,pth,2.40
2023-11-25T20:41:00,pth,2.40
2023-11-25T20:43:00,pth,1.19
2023-11-25T20:45:00,pth,2.40
2023-11-25T20:46:00,pth,1.20
2023-11-25T20:48:00,pth,2.40
2023-11-25T20:50:00,pth,2.40
2023-11-25T20:52:00,pth,2.40
2023-11-25T20:53:00,pth,1.20
2023-11-25T20:55:00,pth,2.40
2023-11-25T20:57:00,pth,1.19
2023-11-25T20:59:00,pth,2.40
2023-11-25T21:01:00,pth,3.60
2023-11-25T21:03:00,pth,2.40
2023-11-25T21:05:00,pth,2.40
2023-11-25T21:07:00,pth,2.40
2023-11-25T21:09:00,pth,2.40
2023-11-25T21:10:00,pth,1.20
2023-11-25T21:12:00,pth,2.40
2023-11-25T21:14:00,pth,2.40
2023-11-25T21:16:00,pth,2.40
2023-11-25T21:17:00,pth,1.20
2023-11-25T21:19:00,pth,2.40
2023-11-25T21:20:00,pth,1.20
2023-11-25T21:22:00,pth,2.40
2023-11-25T21:23:00,pth,1.20
2023-11-25T21:25:00,pth,2.40
2023-11-25T21:27:00,pth,2.40
2023-11-25T21:29:00,pth,2.40
2023-11-25T21:31:00,pth,2.40
2023-11-25T21:32:00,pth,1.20
2023-11-25T21:34:00,pth,2.40
2023-11-25T21:36:00,pth,3.60
2023-11-25T21:38:00,pth,1.20
2023-11-25T21:39:00,pth,2.40
2023-11-25T21:41:00,pth,3.60
2023-11-25T21:43:00,pth,3.60
2023-11-25T21:44:00,pth,1.20
2023-11-25T21:46:00,pth,2.40
2023-11-25T21:47:00,pth,1.20
2023-11-25T21:49:00,pth,2.40
2023-11-25T21:50:00,pth,1.20
2023-11-25T21:51:00,pth,1.20
2023-11-25T21:53:00,pth,2.40
2023-11-25T21:54:00,pth,1.20
2023-11-25T21:56:00,pth,2.40
2023-11-25T21:57:00,pth,1.20
2023-11-25T21:58:00,pth,1.20
2023-11-25T22:00:00,pth,3.60
2023-11-25T22:02:00,pth,2.40
2023-11-25T22:03:00,pth,1.20
2023-11-25T22:04:00,pth,1.20
2023-11-25T22:06:00,pth,2.40
2023-11-25T22:07:00,pth,1.19
2023-11-25T22:09:00,pth,2.40
2023-11-25T22:10:00,pth,1.20
2023-11-25T22:12:00,pth,2.40
2023-11-25T22:14:00,pth,2.40
2023-11-25T22:16:00,pth,2.40
2023-11-25T22:18:00,pth,2.40
2023-11-25T22:20:00,pth,2.40
2023-11-25T22:22:00,pth,3.60
2023-11-25T22:23:00,pth,1.20
2023-11-25T22:25:00,pth,4.80
2023-11-25T22:26:00,pth,2.40
2023-11-25T22:28:00,pth,3.60
2023-11-25T22:30:00,pth,4.80
2023-11-25T22:32:00,pth,2.40
2023-11-25T22:34:00,pth,2.40
2023-11-25T22:36:00,pth,3.60
2023-11-25T22:37:00,pth,1.20
2023-11-25T22:38:00,pth,2.40
2023-11-25T22:40:00,pth,2.40
2023-11-25T22:41:00,pth,1.19
2023-11-25T22:43:00,pth,2.40
2023-11-25T22:45:00,pth,3.60
2023-11-25T22:47:00,pth,2.40
2023-11-25T22:49:00,pth,2.40
2023-11-25T22:51:00,pth,3.60
2023-11-25T22:53:00,pth,2.40
2023-11-25T22:55:00,pth,3.60
2023-11-25T22:57:00,pth,2.40
2023-11-25T22:58:00,pth,1.20
2023-11-25T23:00:00,pth,2.40
2023-11-25T23:02:00,pth,2.40
2023-11-25T23:04:00,pth,2.40
2023-11-25T23:06:00,pth,2.40
2023-11-25T23:08:00,pth,2.40
2023-11-25T23:10:00,pth,2.40
2023-11-25T23:12:00,pth,3.60
2023-11-25T23:14:00,pth,2.40
2023-11-25T23:15:00,pth,1.19
2023-11-25T23:16:00,pth,1.20
2023-11-25T23:18:00,pth,3.60
2023-11-25T23:20:00,pth,2.40
2023-11-25T23:21:00,pth,1.20
2023-11-25T23:23:00,pth,2.40
2023-11-25T23:24:00,pth,1.20
2023-11-25T23:25:00,pth,1.20
2023-11-25T23:27:00,pth,2.40
2023-11-25T23:28:00,pth,1.20
2023-11-25T23:31:00,pth,2.40
2023-11-25T23:33:00,pth,2.40
2023-11-25T23:35:00,pth,2.40
2023-11-25T23:36:00,pth,1.20
2023-11-25T23:38:00,pth,2.40
2023-11-25T23:40:00,pth,2.40
2023-11-25T23:41:00,pth,1.20
2023-11-25T23:42:00,pth,1.20
2023-11-25T23:43:00,pth,1.20
2023-11-25T23:45:00,pth,2.40
2023-11-25T23:47:00,pth,2.40
2023-11-25T23:49:00,pth,3.60
